Wetbulb
39.49 39.49 38.96 38.96 39.08 39.28 39.03 38.29 36.20 35.70 36.67 37.42 37.50 37.32 38.38 40.46 41.34 41.86 42.73 43.23 44.07 45.77 47.76 49.51 51.29 53.00 53.95 56.27 58.44 60.66 67.41 67.81 67.24 66.63 66.64 66.62 66.60 66.11 65.71 65.54 65.31 64.68 64.94
39.01 38.44 38.28 38.24 38.39 38.65 37.46 35.64 35.47 35.45 35.88 37.12 38.32 39.99 40.37 41.01 41.79 42.45 42.85 43.71 43.31 44.31 45.85 47.76 49.74 51.12 53.19 54.98 57.22 58.89 66.48 67.82 67.24 66.35 66.42 66.28 65.97 65.56 65.14 64.89 64.18 64.14 64.38
38.84 38.23 37.61 37.68 37.82 36.90 35.38 35.23 35.50 35.77 35.81 38.97 38.22 39.11 40.37 40.91 41.35 41.85 42.58 43.19 43.87 43.94 44.46 46.11 47.44 48.77 50.96 53.33 56.20 57.94 60.39 65.85 66.88 65.81 66.11 65.95 65.39 64.80 64.24 63.92 63.88 63.64 63.96
38.63 38.04 37.12 37.15 37.61 34.85 34.54 34.65 34.69 34.91 35.54 34.73 36.57 38.77 40.12 40.88 41.48 41.71 42.25 42.77 43.86 44.58 44.57 44.73 45.78 47.56 49.03 51.41 54.59 57.65 60.77 67.18 66.59 65.79 65.95 65.63 64.84 64.28 63.97 63.55 63.49 63.12 63.20
38.12 37.61 36.92 36.99 34.83 33.93 33.83 34.10 34.23 34.33 33.32 34.00 35.22 37.95 39.21 39.98 40.69 41.02 41.60 42.73 44.24 45.22 45.58 45.10 45.32 46.43 47.48 49.46 53.37 57.24 60.82 65.41 66.81 65.99 65.76 65.29 64.63 63.83 63.52 63.42 63.24 63.24 63.56
37.48 37.28 36.92 36.09 33.92 33.84 33.48 33.27 32.64 34.19 34.46 34.08 34.60 35.62 38.19 39.42 40.31 40.75 41.38 43.32 42.89 43.95 44.88 46.35 47.00 46.91 46.76 48.64 51.38 56.09 60.56 64.68 67.34 66.32 65.64 65.11 64.48 63.70 63.50 63.22 63.24 63.58 62.96
36.87 36.54 36.16 35.21 34.64 33.94 32.93 32.84 32.51 33.06 33.71 34.47 32.82 34.72 36.63 39.38 39.75 40.29 40.45 41.05 42.70 44.74 46.24 46.86 47.45 47.32 47.49 47.81 50.57 55.24 59.65 67.39 67.30 66.40 65.22 64.65 64.04 63.29 63.15 63.09 63.23 63.14 62.50
36.11 36.15 35.69 35.36 35.04 33.60 32.98 32.03 32.47 32.92 33.62 34.56 32.25 32.17 31.27 35.72 39.91 38.47 40.05 41.56 41.95 43.93 44.37 46.63 47.42 48.12 47.55 48.52 50.24 53.77 60.04 67.06 66.66 65.86 64.72 63.79 63.40 63.16 63.13 63.14 63.07 62.74 62.44
35.92 35.74 35.83 35.44 35.26 34.20 31.47 31.49 33.12 33.02 31.23 33.39 33.75 31.51 29.24 28.98 31.99 39.10 38.47 40.53 40.58 41.53 43.95 46.28 47.13 48.39 48.75 48.25 51.76 52.89 55.55 62.41 64.83 65.18 64.33 63.60 63.21 63.28 63.20 63.38 62.92 62.83 62.37
36.06 34.96 35.57 35.46 35.23 34.81 31.78 31.96 33.17 33.82 32.72 30.47 32.48 34.10 34.72 32.85 29.16 29.47 37.35 38.45 39.90 40.65 42.59 44.94 46.84 48.28 49.14 48.52 53.14 54.60 58.03 57.84 61.46 63.71 63.99 63.52 63.19 63.50 63.46 63.44 62.81 62.66 62.37
36.26 34.17 35.05 35.39 35.05 34.79 33.48 32.73 33.30 33.80 33.88 31.81 31.52 31.67 31.38 32.72 34.06 30.51 29.47 34.02 37.70 40.82 43.61 46.18 47.35 48.94 49.95 50.08 54.08 54.29 57.62 57.28 59.52 61.61 62.65 62.69 62.92 63.27 63.46 63.51 63.05 62.79 62.53
35.06 33.91 34.55 34.95 35.19 34.83 32.87 32.32 33.16 33.95 32.74 32.01 32.09 32.18 31.25 30.33 30.42 30.85 29.29 31.62 32.85 38.12 43.49 46.24 47.96 49.44 50.73 52.62 54.24 55.76 55.52 54.59 57.93 59.69 60.75 61.26 61.60 62.69 63.07 63.31 63.16 63.11 62.77
32.21 33.25 34.00 33.96 33.53 33.68 31.75 32.60 33.38 33.08 32.99 32.18 31.89 31.62 32.39 32.10 32.88 32.37 31.46 30.56 30.57 37.73 42.85 47.54 49.05 50.59 51.69 53.89 54.75 56.74 54.75 54.25 56.41 57.87 58.73 59.28 59.67 60.94 61.76 62.55 62.98 62.89 62.74
32.17 33.81 33.54 33.59 33.62 33.36 32.55 32.52 32.67 32.55 32.76 32.43 31.74 32.08 31.98 32.50 33.63 33.70 32.10 31.18 31.07 34.89 41.70 46.62 50.80 51.32 54.03 54.47 56.70 56.08 56.04 51.89 54.20 55.61 56.53 57.31 57.60 58.50 59.50 60.51 61.09 61.35 61.61
32.40 32.91 33.15 33.12 33.68 32.70 32.28 32.02 32.04 31.62 32.13 31.95 32.31 32.65 32.29 33.60 34.41 34.35 34.13 33.24 31.47 36.17 41.67 47.08 46.97 52.46 53.55 55.45 57.06 58.91 58.28 52.76 51.88 53.26 54.09 55.00 56.08 56.69 57.37 58.07 58.63 59.12 59.87
32.52 32.30 32.39 32.65 33.03 32.40 32.09 32.20 31.84 32.05 31.39 31.70 32.14 31.94 32.53 34.38 34.48 35.71 34.96 34.30 35.21 34.15 41.70 47.74 51.17 52.69 54.41 58.08 57.28 58.58 57.94 54.20 50.85 50.31 51.68 52.36 53.37 54.34 54.95 55.37 55.63 56.59 57.59
32.05 31.60 31.55 31.55 31.03 31.62 31.94 31.58 31.63 30.85 30.60 31.21 31.79 31.68 32.51 33.60 34.67 35.53 36.75 36.59 36.06 36.16 37.95 46.48 51.50 56.28 57.20 57.28 58.30 58.42 56.72 58.45 55.96 50.00 50.80 50.10 50.21 50.76 51.68 52.74 53.25 53.80 54.85
32.26 31.35 31.12 30.74 30.99 31.25 32.15 31.84 30.10 30.18 30.12 30.62 30.92 32.02 31.95 33.06 33.42 35.03 35.97 36.84 37.90 39.40 39.30 51.02 54.62 55.48 56.62 58.15 57.66 57.69 58.28 58.84 58.35 50.75 50.76 49.76 48.99 49.39 49.30 49.89 50.41 50.89 51.77
31.38 31.44 30.83 30.01 30.60 32.21 31.80 31.43 30.53 30.00 29.96 30.96 31.08 30.95 31.50 32.32 32.30 33.79 35.27 37.55 40.63 42.38 47.09 48.99 46.27 48.86 56.32 56.98 56.60 57.57 57.89 57.86 58.12 50.82 49.50 48.64 48.54 49.21 48.66 48.77 48.97 49.64 49.87
30.57 30.42 30.57 30.24 31.59 31.67 31.50 31.14 30.33 30.04 29.92 31.07 31.92 31.44 31.91 32.23 32.56 33.40 34.88 36.12 39.01 46.32 48.84 49.21 48.21 50.61 50.87 55.23 56.32 55.62 55.56 57.42 54.92 57.19 54.27 54.05 50.37 48.15 48.29 47.93 47.82 48.43 48.64
30.17 30.39 29.98 30.11 31.47 31.36 31.27 30.60 29.90 29.38 30.06 30.93 31.68 31.35 31.83 34.39 35.97 35.48 34.24 34.73 39.19 40.58 44.44 46.37 47.34 47.41 43.58 50.92 54.66 55.87 55.26 55.74 55.44 56.06 55.29 55.89 56.51 58.14 54.89 49.24 50.21 48.23 47.39
30.09 30.16 29.49 29.77 30.41 31.41 31.40 30.67 30.23 29.23 29.30 30.42 29.97 30.85 31.41 32.51 33.60 34.95 35.40 34.84 33.81 36.01 36.66 39.89 38.93 39.37 40.09 41.09 42.82 56.00 54.90 53.44 51.87 56.52 55.50 55.00 58.65 57.46 56.99 59.69 48.26 45.71 46.17
30.21 29.86 29.33 30.01 30.17 30.91 31.03 29.66 29.21 29.79 29.52 30.00 30.10 29.48 29.88 31.39 32.87 33.43 34.31 34.86 34.75 34.53 32.80 36.73 34.23 34.46 36.32 37.72 41.19 54.79 55.17 52.95 48.03 54.92 56.10 54.10 57.26 54.40 53.86 50.48 44.24 44.44 44.84
29.56 29.48 29.29 29.76 30.30 30.48 30.85 29.47 29.49 29.82 29.74 29.86 30.66 29.59 29.82 30.10 31.84 32.76 33.28 32.87 33.45 34.48 35.23 35.81 35.29 35.07 35.87 37.74 41.37 53.40 48.76 46.60 47.41 46.96 57.13 50.86 46.93 43.63 45.58 45.80 41.85 43.50 42.97
29.71 29.47 29.70 29.32 29.02 29.86 30.29 30.09 29.43 30.22 29.18 29.13 30.07 30.33 29.59 30.09 31.79 33.21 32.49 32.21 32.10 33.25 35.71 36.29 36.04 35.75 35.26 35.64 38.51 52.35 52.27 51.91 46.15 39.88 44.44 46.25 41.80 38.70 38.80 40.19 43.66 39.62 39.99
29.56 30.01 29.58 29.94 28.56 29.12 28.76 29.33 29.20 29.24 29.04 29.90 30.56 29.83 30.48 30.19 31.11 31.65 31.63 32.02 30.45 31.17 32.83 34.01 35.06 35.55 35.14 35.03 33.96 35.93 50.64 50.73 42.80 42.35 39.17 42.69 38.30 40.71 35.53 37.46 39.17 41.90 41.52
MSLP
1023.53 1023.22 1022.93 1022.53 1022.17 1021.81 1021.41 1021.11 1021.12 1020.67 1020.05 1019.42 1018.93 1018.45 1017.77 1017.01 1016.43 1015.86 1015.32 1015.20 1014.97 1014.64 1014.17 1013.80 1013.57 1013.36 1013.13 1012.88 1012.90 1012.43 1011.37 1012.17 1013.46 1014.56 1015.15 1015.98 1016.89 1017.66 1018.11 1018.91 1019.45 1019.98 1020.57
1023.84 1023.37 1022.91 1022.46 1022.06 1021.73 1021.71 1021.60 1021.00 1020.41 1019.74 1019.00 1017.97 1017.35 1016.75 1016.18 1015.67 1015.28 1014.70 1014.20 1014.21 1014.09 1013.74 1013.48 1013.28 1013.14 1012.91 1012.76 1012.77 1012.55 1011.52 1011.95 1012.53 1014.24 1015.07 1015.86 1016.84 1017.43 1018.11 1018.98 1019.60 1020.17 1020.80
1023.92 1023.52 1022.84 1022.33 1022.01 1021.97 1021.78 1021.14 1020.52 1019.92 1019.24 1018.02 1017.55 1016.76 1016.04 1015.48 1014.88 1014.44 1014.13 1013.74 1013.35 1013.18 1013.13 1012.97 1012.88 1012.80 1012.66 1012.60 1012.42 1012.39 1012.19 1011.68 1012.33 1014.07 1014.89 1015.84 1016.55 1017.30 1018.16 1018.92 1019.80 1020.41 1021.05
1023.83 1023.27 1022.67 1022.21 1022.01 1022.01 1021.48 1020.84 1020.28 1019.53 1018.79 1018.39 1017.36 1016.27 1015.29 1014.65 1014.04 1013.71 1013.39 1013.11 1012.75 1012.48 1012.22 1012.25 1012.28 1012.19 1012.24 1012.40 1012.04 1011.80 1011.27 1011.32 1012.33 1013.76 1014.84 1015.63 1016.37 1017.20 1017.97 1019.09 1019.87 1020.56 1021.19
1023.68 1023.17 1022.60 1022.17 1022.26 1021.78 1021.25 1020.74 1020.07 1019.45 1018.64 1017.87 1016.99 1015.95 1014.91 1014.01 1013.31 1012.79 1012.55 1012.33 1012.11 1011.93 1011.59 1011.31 1011.57 1011.57 1011.79 1012.00 1011.60 1011.27 1010.78 1011.00 1011.80 1013.53 1014.57 1015.21 1016.25 1017.01 1017.92 1019.13 1019.89 1020.67 1021.33
1023.55 1022.99 1022.46 1022.22 1022.20 1021.43 1020.94 1020.60 1020.00 1019.16 1018.21 1017.28 1016.49 1015.54 1014.19 1013.25 1012.62 1012.14 1011.84 1011.47 1011.34 1011.16 1011.03 1010.74 1010.55 1010.48 1010.98 1011.16 1011.08 1010.85 1010.02 1010.29 1011.08 1012.96 1013.97 1014.73 1016.06 1016.90 1018.01 1019.21 1020.01 1020.80 1021.56
1023.45 1022.97 1022.43 1022.16 1021.76 1021.17 1020.87 1020.31 1019.69 1018.62 1017.53 1016.87 1015.95 1014.81 1013.36 1012.28 1011.65 1011.62 1011.60 1010.97 1010.71 1010.32 1010.19 1009.98 1009.84 1009.84 1009.86 1010.33 1010.39 1010.24 1009.79 1007.91 1010.25 1012.01 1013.22 1014.32 1015.78 1016.83 1018.10 1019.07 1019.97 1020.94 1021.69
1023.33 1022.86 1022.51 1021.98 1021.47 1020.95 1020.46 1020.01 1019.11 1018.12 1017.03 1016.30 1015.76 1014.64 1012.71 1011.51 1011.18 1011.19 1010.62 1010.28 1010.09 1009.88 1009.63 1009.20 1009.04 1009.16 1009.46 1009.63 1009.55 1009.84 1008.72 1007.28 1009.80 1011.32 1012.70 1014.18 1015.57 1016.74 1018.04 1019.02 1020.07 1020.94 1021.71
1023.26 1022.99 1022.46 1021.80 1021.13 1020.60 1020.16 1019.50 1018.61 1017.81 1016.89 1015.95 1015.46 1015.23 1013.63 1012.26 1011.85 1010.21 1010.11 1009.85 1009.84 1009.37 1009.05 1008.71 1008.35 1008.49 1008.72 1009.20 1009.00 1009.23 1009.08 1008.03 1008.86 1011.41 1012.47 1014.06 1015.38 1016.75 1017.99 1019.04 1020.11 1020.93 1021.82
1023.25 1022.81 1022.24 1021.55 1020.87 1020.18 1019.69 1018.95 1017.99 1017.40 1016.78 1015.68 1015.07 1014.61 1014.33 1013.90 1012.54 1010.69 1009.82 1009.56 1009.26 1008.84 1008.37 1008.01 1007.78 1007.85 1007.93 1008.36 1008.46 1008.52 1008.19 1008.44 1010.81 1011.32 1012.63 1013.89 1015.30 1016.83 1017.95 1019.09 1020.08 1020.99 1022.00
1022.96 1022.53 1022.03 1021.30 1020.50 1019.71 1019.08 1018.46 1017.56 1016.92 1016.32 1015.64 1014.93 1014.39 1013.85 1013.13 1012.54 1011.82 1010.03 1009.10 1008.84 1007.97 1007.46 1007.11 1007.25 1007.12 1007.14 1007.48 1007.45 1007.04 1007.95 1009.21 1010.10 1011.20 1012.52 1013.86 1015.23 1016.74 1017.99 1019.13 1020.06 1021.02 1022.16
1022.62 1022.23 1021.85 1021.07 1020.26 1019.41 1018.78 1018.17 1017.35 1016.56 1015.96 1015.36 1014.79 1014.13 1013.46 1012.83 1012.01 1011.63 1010.65 1009.75 1008.92 1007.56 1006.70 1006.48 1006.60 1006.47 1006.54 1006.65 1007.01 1006.37 1007.62 1009.04 1009.82 1011.36 1012.49 1013.94 1015.23 1016.85 1018.03 1019.16 1020.05 1021.06 1022.16
1022.66 1022.19 1021.73 1020.86 1020.03 1019.34 1018.77 1017.76 1016.90 1016.17 1015.48 1014.83 1014.19 1013.52 1012.91 1012.29 1011.84 1011.32 1010.71 1009.78 1009.06 1007.33 1006.09 1005.75 1005.77 1006.02 1006.21 1006.42 1006.61 1006.93 1007.98 1009.30 1010.35 1011.55 1012.73 1014.15 1015.43 1016.89 1018.16 1019.21 1020.12 1021.05 1022.13
1023.02 1022.42 1021.70 1020.78 1019.89 1019.18 1018.28 1017.40 1016.60 1015.84 1015.07 1014.20 1013.45 1012.75 1012.02 1011.36 1010.91 1010.53 1010.06 1009.65 1008.60 1007.34 1005.81 1004.40 1005.07 1005.48 1005.50 1006.00 1006.29 1007.24 1008.35 1009.37 1011.05 1011.89 1013.00 1014.36 1015.77 1017.08 1018.21 1019.31 1020.14 1021.12 1022.14
1023.10 1022.41 1021.59 1020.62 1019.71 1019.04 1018.07 1017.16 1016.32 1015.52 1014.64 1013.68 1012.70 1011.84 1011.05 1010.20 1009.74 1009.44 1009.29 1009.08 1008.57 1006.55 1005.06 1004.33 1004.46 1004.97 1005.46 1005.81 1006.40 1007.35 1008.61 1010.42 1011.60 1012.54 1013.26 1014.75 1016.17 1017.29 1018.47 1019.36 1020.23 1021.21 1022.23
1023.21 1022.39 1021.47 1020.52 1019.75 1018.92 1017.89 1016.99 1016.16 1015.25 1014.24 1013.17 1012.14 1011.09 1010.12 1009.16 1008.63 1008.35 1008.27 1008.24 1008.06 1007.24 1005.20 1004.52 1004.15 1004.38 1005.13 1005.31 1006.25 1007.89 1009.06 1010.74 1012.07 1013.09 1014.01 1015.26 1016.50 1017.67 1018.63 1019.46 1020.38 1021.37 1022.33
1023.41 1022.56 1021.69 1020.74 1020.02 1018.93 1017.87 1016.96 1016.17 1015.09 1013.98 1012.77 1011.71 1010.53 1009.36 1008.44 1007.80 1007.52 1007.55 1007.57 1007.26 1007.01 1006.00 1004.67 1003.91 1004.14 1004.83 1005.99 1007.33 1008.95 1010.26 1011.41 1012.75 1013.83 1014.82 1015.55 1017.04 1018.04 1018.72 1019.63 1020.56 1021.58 1022.47
1023.58 1022.88 1022.02 1021.05 1020.16 1019.10 1017.88 1017.06 1016.10 1015.08 1013.99 1012.73 1011.66 1010.33 1009.13 1008.00 1007.33 1007.14 1006.87 1006.86 1006.79 1006.32 1005.72 1003.40 1003.62 1004.59 1005.38 1006.54 1007.55 1009.19 1010.52 1011.69 1012.97 1014.68 1015.17 1016.20 1017.51 1018.25 1018.96 1019.90 1020.92 1021.84 1022.66
1023.76 1023.09 1022.34 1021.33 1020.39 1019.26 1018.12 1017.36 1016.29 1015.13 1014.21 1013.03 1011.84 1010.55 1009.24 1008.07 1007.35 1007.17 1006.98 1006.97 1006.17 1005.53 1004.82 1004.34 1004.88 1005.11 1005.78 1007.12 1008.73 1009.97 1010.70 1012.16 1013.63 1015.41 1015.69 1016.89 1018.02 1018.56 1019.44 1020.32 1021.34 1022.18 1022.94
1024.10 1023.44 1022.75 1021.81 1020.79 1019.78 1018.57 1017.88 1016.76 1015.38 1014.52 1013.41 1012.33 1011.13 1010.14 1009.05 1008.06 1007.90 1007.32 1006.69 1006.55 1005.58 1005.58 1005.91 1006.41 1006.62 1007.32 1008.20 1009.36 1010.27 1011.45 1012.78 1014.25 1015.72 1016.79 1017.55 1018.68 1019.42 1020.21 1021.04 1021.83 1022.52 1023.44
1024.64 1024.04 1023.24 1022.12 1021.19 1020.16 1019.19 1018.48 1017.54 1016.36 1015.10 1013.89 1013.13 1012.10 1011.00 1010.31 1009.40 1008.23 1007.89 1007.72 1007.18 1007.28 1007.26 1007.46 1008.42 1008.56 1008.83 1009.87 1010.23 1010.82 1012.04 1013.21 1014.93 1015.98 1017.33 1018.64 1019.70 1020.61 1021.44 1021.94 1022.53 1023.09 1023.96
1025.10 1024.45 1023.72 1022.73 1021.70 1020.80 1020.02 1019.10 1018.19 1017.18 1016.30 1015.00 1013.99 1013.23 1012.16 1010.97 1010.56 1009.84 1009.39 1009.18 1008.92 1008.88 1009.22 1009.23 1009.98 1010.44 1011.29 1011.53 1011.77 1011.39 1012.45 1013.49 1015.09 1016.37 1017.58 1019.23 1019.99 1020.89 1021.82 1022.16 1022.99 1023.78 1024.39
1025.72 1024.98 1024.36 1023.48 1022.58 1021.85 1020.90 1019.88 1018.99 1018.07 1017.19 1015.93 1014.71 1014.02 1013.34 1012.79 1011.78 1011.42 1010.97 1010.56 1010.57 1010.78 1011.38 1011.37 1011.43 1012.17 1012.61 1012.78 1011.98 1012.10 1013.03 1014.10 1015.51 1016.49 1017.52 1019.29 1020.39 1021.70 1022.71 1023.52 1023.85 1024.41 1024.72
1026.33 1025.76 1025.18 1024.33 1023.42 1022.64 1021.67 1020.67 1019.43 1018.74 1017.96 1017.22 1016.37 1015.53 1014.84 1014.10 1013.48 1012.73 1012.28 1012.09 1012.57 1012.70 1012.93 1012.98 1013.06 1013.48 1013.47 1012.98 1012.94 1012.21 1013.70 1014.99 1016.48 1017.57 1018.03 1019.81 1021.73 1023.55 1024.29 1024.84 1024.99 1025.12 1025.41
1026.92 1026.44 1025.97 1025.24 1024.50 1023.72 1022.85 1021.84 1020.53 1019.72 1019.03 1018.36 1017.94 1017.44 1016.60 1015.94 1015.48 1014.63 1013.83 1014.04 1014.24 1014.80 1015.12 1014.85 1014.57 1014.40 1013.95 1013.59 1013.45 1013.11 1014.51 1015.28 1017.34 1019.26 1019.68 1020.86 1023.15 1024.67 1025.61 1026.40 1026.58 1026.43 1026.27
1027.74 1027.22 1026.57 1026.12 1025.64 1024.86 1024.50 1023.17 1022.14 1021.16 1020.31 1019.87 1019.41 1019.08 1018.51 1017.97 1017.43 1016.47 1015.66 1015.83 1015.89 1016.94 1016.24 1015.82 1015.76 1015.76 1015.69 1015.50 1015.04 1015.21 1014.93 1015.99 1018.19 1019.86 1021.40 1021.87 1023.30 1023.94 1026.44 1028.12 1027.82 1027.59 1027.72
Wind_Speed
8 8 8 8 8 8 8 9 8 9 11 11 11 12 12 13 13 8 7 15 18 17 17 19 19 19 18 19 17 22 27 32 27 28 26 24 25 24 23 22 20 21 22
8 8 8 8 8 8 8 7 8 9 9 11 12 12 13 13 13 13 10 10 17 18 18 19 19 19 19 19 18 17 18 34 33 28 28 26 25 24 23 22 21 23 22
9 9 7 8 8 9 9 8 9 9 10 10 13 12 11 13 12 13 11 10 11 15 17 18 18 18 20 20 19 19 21 25 30 30 29 27 26 25 24 24 22 22 21
10 8 8 8 9 7 7 8 8 10 9 8 12 11 11 12 14 13 11 9 9 9 10 15 16 18 19 20 21 21 21 38 34 29 30 28 26 26 25 25 23 22 20
10 9 8 8 9 7 7 8 9 10 9 9 11 12 12 11 12 9 10 11 11 11 9 13 15 17 18 20 21 22 24 18 38 33 31 29 27 27 26 24 24 22 23
11 10 8 10 8 7 8 8 10 10 10 9 10 12 12 11 9 8 8 6 11 12 13 11 8 10 17 20 21 23 24 22 39 38 34 31 28 28 27 25 24 23 24
11 10 8 9 9 9 9 9 9 11 9 9 10 10 11 9 9 2 7 9 8 8 9 10 8 7 7 19 21 22 24 36 42 39 36 32 29 29 28 26 25 25 24
12 11 11 9 10 9 10 10 11 9 10 9 6 11 6 7 2 12 8 5 8 8 8 11 11 11 10 7 12 17 12 36 39 38 36 33 30 29 28 27 26 26 24
12 11 11 10 10 9 8 10 10 12 10 10 9 5 4 4 12 2 9 4 7 8 9 9 12 11 11 8 10 14 19 24 37 36 37 34 31 30 28 27 26 26 25
11 12 12 11 11 9 9 10 10 10 9 10 8 6 9 9 5 7 4 7 8 8 12 9 10 11 11 7 13 14 30 28 31 37 36 35 33 30 29 28 27 27 25
11 12 12 12 11 9 11 12 12 12 9 9 8 8 9 8 9 7 11 8 10 8 8 8 9 8 11 9 8 8 34 38 33 36 37 34 34 30 29 28 27 27 26
9 12 13 12 11 12 12 11 13 12 10 9 8 9 8 7 6 7 8 10 11 9 7 7 9 8 9 6 10 9 24 20 31 33 35 34 33 30 29 29 28 28 26
10 11 13 13 11 13 13 13 12 12 10 10 11 9 8 8 8 8 9 9 7 6 4 7 7 8 9 7 8 22 23 22 31 33 33 31 31 29 29 28 28 28 27
10 13 12 13 14 15 14 13 10 10 11 10 13 11 9 9 8 8 8 7 6 8 4 6 8 9 8 7 7 26 15 15 25 31 32 29 29 27 26 27 27 27 26
10 12 13 13 15 16 16 15 10 12 12 11 12 11 10 9 7 6 7 7 8 3 6 5 7 10 6 6 19 15 13 21 18 25 29 28 27 26 21 24 23 25 24
12 13 14 14 16 16 16 16 13 12 14 11 9 12 11 6 6 4 5 7 8 5 2 4 3 7 8 12 18 14 12 20 19 18 25 25 23 22 20 20 20 21 22
13 14 14 15 16 17 16 15 15 15 16 13 13 12 11 8 4 2 4 5 6 5 4 2 3 11 19 19 17 13 15 17 16 20 24 23 20 19 19 20 20 19 19
14 14 14 15 16 17 17 16 17 17 16 15 15 14 13 7 5 3 2 4 4 6 5 9 11 12 15 18 18 16 13 14 17 17 25 23 19 20 19 19 19 18 19
14 14 15 16 17 18 18 16 17 17 16 15 14 14 14 13 11 7 5 4 1 2 3 8 5 3 13 14 14 11 13 14 12 17 21 21 19 20 18 18 18 17 18
14 15 15 15 18 18 18 17 18 17 16 15 15 14 15 15 15 9 9 8 5 8 10 11 7 9 9 10 11 9 11 12 11 14 11 13 16 15 16 16 16 16 16
13 14 15 16 18 17 15 18 18 17 17 17 16 15 16 21 28 27 11 10 9 10 8 9 9 8 5 8 12 7 10 11 12 10 9 9 10 11 9 12 12 15 14
14 15 17 17 19 14 29 28 22 15 17 16 16 16 16 22 21 29 31 35 25 12 10 6 4 6 4 3 3 10 12 14 11 9 12 9 9 8 8 9 8 12 13
14 16 17 17 18 21 31 29 25 14 15 18 20 17 16 16 19 16 24 29 31 30 21 10 10 6 4 2 1 16 17 11 5 11 13 11 8 9 8 7 9 8 10
14 14 16 18 17 17 31 31 24 17 15 19 21 21 20 21 22 17 18 22 22 23 20 14 15 11 7 5 2 9 14 11 9 8 10 9 9 10 9 11 20 9 10
13 14 14 18 19 19 32 31 21 16 17 19 18 22 22 22 31 26 18 20 20 17 17 25 26 25 28 27 14 13 13 16 8 4 6 7 3 8 8 10 10 26 22
12 11 14 16 20 19 30 32 25 14 18 14 18 20 34 28 31 28 18 17 21 14 15 18 18 21 22 21 26 14 5 13 8 7 5 6 3 5 5 6 9 8 10
Wind_Direction
354 343 340 334 331 329 326 329 323 313 312 311 306 298 289 288 288 287 283 281 285 286 282 280 277 275 273 277 285 290 199 168 167 162 158 159 157 154 147 146 148 143 140
352 341 334 331 327 330 335 310 305 305 304 297 294 297 295 291 288 285 283 283 280 279 276 275 274 272 270 268 270 278 214 173 164 165 161 161 160 152 150 150 144 139 142
346 338 332 331 330 338 313 308 306 301 301 305 308 294 290 286 281 280 278 275 279 270 270 272 271 266 264 264 261 263 280 183 166 169 162 161 156 151 148 140 146 142 143
349 336 334 333 341 320 314 310 309 311 310 302 292 300 295 290 284 280 273 269 268 267 261 269 268 260 257 257 253 257 267 176 164 169 163 160 155 151 144 144 145 145 148
349 339 336 335 339 317 311 310 312 306 304 297 302 299 296 284 284 276 268 266 260 257 263 277 257 256 250 250 247 248 250 201 161 172 165 157 156 150 145 148 146 147 136
349 344 338 342 324 312 314 314 308 306 298 297 306 295 295 285 274 268 264 260 276 265 257 257 250 246 245 244 241 240 241 241 163 169 163 155 157 149 149 153 149 144 142
355 345 341 336 324 324 321 313 308 303 306 308 307 312 299 278 274 247 255 291 265 257 262 243 240 250 247 238 240 235 259 202 165 163 159 156 155 152 154 153 147 147 145
358 348 339 329 326 324 321 322 316 313 309 320 308 306 317 311 202 314 279 255 274 259 262 243 243 242 240 237 228 227 213 153 162 157 156 157 156 152 155 151 150 147 145
350 341 333 330 328 326 319 313 312 312 308 312 318 306 297 302 324 252 303 273 300 264 249 249 241 235 235 228 215 222 239 160 157 158 154 158 157 155 156 152 153 147 147
339 340 333 333 328 328 319 314 315 311 309 307 309 288 280 280 287 303 272 278 289 273 258 245 237 229 227 220 206 211 171 178 180 156 155 157 157 157 155 153 153 147 149
341 340 335 332 332 328 327 321 320 317 306 305 301 297 286 273 259 261 288 295 302 268 241 239 225 218 216 215 204 251 174 169 163 154 154 156 158 158 155 155 153 150 152
340 343 339 335 331 331 335 320 311 313 317 305 293 284 276 276 266 263 270 283 293 279 248 214 215 204 206 209 200 194 153 161 150 154 153 156 158 158 156 156 154 152 153
343 341 339 338 337 338 332 316 322 317 313 305 297 289 279 265 263 257 256 260 267 286 254 204 193 204 195 197 189 155 132 158 153 154 153 155 158 158 157 156 155 153 154
336 336 339 338 341 345 335 337 325 322 318 309 300 291 281 274 259 248 245 243 249 234 258 148 178 197 189 177 185 149 143 143 155 152 151 153 158 158 155 156 154 153 153
340 343 344 344 346 348 344 338 330 325 322 314 309 299 292 282 259 239 226 221 227 215 166 177 158 193 180 192 146 144 135 145 147 151 147 151 158 158 151 152 151 150 152
348 349 351 348 351 349 344 341 337 330 329 324 316 308 304 285 273 235 208 205 216 253 167 174 179 158 180 131 141 119 132 147 140 141 144 145 153 158 140 142 142 145 149
351 354 353 350 351 349 345 345 345 340 337 333 331 325 327 323 306 207 182 188 198 210 259 195 212 154 127 129 131 128 144 157 146 142 146 134 145 150 137 137 139 139 141
356 354 353 353 354 351 350 351 348 346 344 343 340 340 346 345 14 36 91 120 185 213 247 145 99 126 128 122 115 118 143 151 151 146 144 135 141 143 135 135 139 139 139
358 359 360 356 356 354 357 356 350 347 348 352 349 349 0 10 24 31 42 86 34 233 111 92 91 51 115 113 115 109 134 132 140 138 137 136 143 142 141 139 141 140 140
1 3 4 357 360 0 2 358 353 351 352 357 1 6 13 22 29 39 39 28 33 76 88 91 78 89 89 118 118 129 134 141 133 149 138 142 148 134 137 139 139 140 139
6 5 7 4 4 9 3 3 357 356 358 7 12 11 22 33 43 48 53 37 52 69 73 87 100 95 59 118 153 144 130 133 136 135 129 134 139 153 147 144 144 144 148
11 11 14 8 7 9 6 8 5 2 4 10 17 23 22 27 38 47 54 57 53 55 59 76 60 76 73 69 92 148 141 145 139 145 131 131 153 144 151 170 129 136 144
10 15 15 12 12 14 10 10 11 8 14 20 22 23 27 28 31 43 52 60 57 55 55 66 73 39 60 50 280 138 141 126 92 137 136 127 125 96 65 54 92 129 150
16 16 16 14 13 13 10 14 12 18 19 25 26 24 28 28 29 37 52 58 56 52 44 52 56 48 36 3 337 120 108 105 98 70 133 103 84 70 63 54 41 77 80
20 19 21 18 15 17 12 17 14 21 26 26 29 30 30 33 30 35 54 60 56 51 50 61 63 54 48 37 21 121 128 122 119 51 33 101 94 93 59 42 48 52 63
25 24 26 24 22 17 20 18 20 19 29 29 30 29 31 35 36 37 49 52 60 41 45 47 49 48 44 40 39 39 145 121 130 101 15 90 127 143 83 20 37 46 66